Weather History for Ottumwa, IA

Change the Weather History Date:

Wednesday, December 7, 2011

  Actual Average Record
Temperature  
Mean Temperature 22 °F 28 °F  
Max Temperature 35 °F 37 °F 60 °F (1947)
Min Temperature 9 °F 20 °F -10 °F (1976)
Degree Days  
Heating Degree Days 43 37  
Month to date heating degree days 249 247  
Since 1 July heating degree days 1445 1545  
Cooling Degree Days 0 0  
Month to date cooling degree days 0 0  
Year to date cooling degree days 1111 938  
Moisture  
Dew Point 15 °F    
Average Humidity 72    
Maximum Humidity 92    
Minimum Humidity 51    
Precipitation  
Precipitation 0.00 in 0.05 in 1.90 in (1980)
Month to date precipitation 1.09 0.39  
Year to date precipitation 33.68 36.09  
Sea Level Pressure  
Sea Level Pressure 30.15 in    
Wind  
Wind Speed 7 mph (West)    
Max Wind Speed 15 mph    
Max Gust Speed 18 mph    
Visibility 9 miles    
Events      
T = Trace of Precipitation, MM = Missing Value Source: NWS Daily Summary

Daily Weather History Graph

Daily Weather History Graph

Search for Another Location

Airport:

Trip Planner

Search our weather history database for the weather conditions in past years. The results will help you decide how hot, cold, wet, or windy it might be!

Date:

Astronomy

Dec. 07, 2011 Rise Set
Actual Time 7:21 AM CST 4:41 PM CST
Civil Twilight 6:50 AM CST 5:11 PM CST
Nautical Twilight 6:15 AM CST 5:46 PM CST
Astronomical Twilight 5:42 AM CST 6:19 PM CST
Moon 2:42 PM CST (12/7) 4:36 AM CST (12/7)
Length of Visible Light 10h 21m
Length of Day
9h 19m
Waxing Gibbous, 92% of the Moon is Illuminated
Dec 7
Waxing Gibbous
Dec 10
Full
Dec 17
Last Quarter
Dec 24
New
Jan 1
First Quarter

Hourly Weather History & Observations

Time (CST) Temp. Windchill Dew Point Humidity Pressure Visibility Wind Dir Wind Speed Gust Speed Precip Events Conditions
12:53 AM 12.0 °F - 10.9 °F 95% 30.22 in 6.0 mi Calm Calm - N/A   Clear
1:53 AM 10.9 °F 1.4 °F 9.0 °F 92% 30.22 in 7.0 mi WNW 5.8 mph - N/A   Clear
2:53 AM 12.9 °F - 10.0 °F 88% 30.21 in 6.0 mi Calm Calm - N/A   Clear
3:53 AM 10.0 °F 0.4 °F 7.0 °F 87% 30.17 in 7.0 mi South 5.8 mph - N/A   Clear
4:53 AM 10.9 °F 1.4 °F 8.1 °F 88% 30.14 in 9.0 mi SSW 5.8 mph - N/A   Clear
5:53 AM 12.2 °F 0.7 °F 8.6 °F 85% 30.10 in 10.0 mi SSW 8.1 mph - N/A   Clear
6:53 AM 14.0 °F 2.0 °F 10.0 °F 84% 30.13 in 10.0 mi SSW 9.2 mph - N/A   Mostly Cloudy
7:53 AM 14.0 °F 3.9 °F 10.0 °F 84% 30.14 in 9.0 mi SSW 6.9 mph - N/A   Clear
8:53 AM 19.0 °F 7.5 °F 14.0 °F 81% 30.12 in 10.0 mi SSW 10.4 mph - N/A   Mostly Cloudy
9:53 AM 24.1 °F 12.5 °F 17.1 °F 75% 30.12 in 10.0 mi SW 12.7 mph - N/A   Clear
10:53 AM 28.0 °F 17.5 °F 18.0 °F 66% 30.11 in 10.0 mi WSW 12.7 mph - N/A   Clear
11:53 AM 30.9 °F 21.2 °F 19.0 °F 61% 30.09 in 10.0 mi WSW 12.7 mph - N/A   Clear
12:53 PM 33.1 °F 26.1 °F 19.9 °F 59% 30.09 in 10.0 mi WSW 8.1 mph - N/A   Clear
1:53 PM 34.0 °F 25.5 °F 18.0 °F 52% 30.09 in 10.0 mi West 11.5 mph - N/A   Clear
2:53 PM 34.0 °F 26.6 °F 19.9 °F 56% 30.09 in 10.0 mi WNW 9.2 mph - N/A   Clear
3:53 PM 34.0 °F 27.2 °F 19.9 °F 56% 30.11 in 10.0 mi WNW 8.1 mph - N/A   Scattered Clouds
4:53 PM 32.0 °F 25.6 °F 19.4 °F 60% 30.10 in 10.0 mi WNW 6.9 mph - N/A   Clear
5:53 PM 30.0 °F 24.1 °F 21.0 °F 69% 30.15 in 10.0 mi NW 5.8 mph - N/A   Clear
6:53 PM 30.0 °F 23.2 °F 21.0 °F 69% 30.18 in 10.0 mi WNW 6.9 mph - N/A   Clear
7:53 PM 28.0 °F 21.7 °F 19.0 °F 69% 30.19 in 10.0 mi NW 5.8 mph - N/A   Overcast
8:53 PM 26.1 °F 17.6 °F 19.9 °F 78% 30.18 in 10.0 mi NW 8.1 mph - N/A   Mostly Cloudy
9:53 PM 25.0 °F 18.1 °F 19.0 °F 78% 30.19 in 10.0 mi WNW 5.8 mph - N/A   Overcast
10:53 PM 21.0 °F 14.6 °F 17.1 °F 85% 30.19 in 10.0 mi NW 4.6 mph - N/A   Mostly Cloudy
11:53 PM 19.4 °F - 15.8 °F 86% 30.16 in 10.0 mi Calm Calm - N/A   Clear